Location: Caltech
(34.1382°N, 118.1253°W)
Time: 00:41:08
(UTC-07:00)

NOSS 3-2 (A) - Visible Passes

Search period start: 25 June 2018 00:00
Search period end: 05 July 2018 00:00
Orbit: 851 x 1357 km, 63.4° (Epoch: 11 June)

Date Brightness Start Highest point End Pass type
(mag) Time Alt. Az. Time Alt. Az. Time Alt. Az.
25 Jun 5.4 00:01:05 10° WNW 00:07:12 25° WSW 00:07:59 24° WSW visible
25 Jun 4.6 21:23:49 10° NNW 21:31:07 45° NE 21:36:44 19° ESE visible
25 Jun 4.8 23:14:50 10° NW 23:22:02 40° WSW 23:24:08 35° SW visible
26 Jun 5.2 20:38:50 10° N 20:45:23 30° NE 20:52:23 10° ESE visible
26 Jun 4.3 22:29:03 10° NW 22:36:46 64° WSW 22:40:20 36° S visible
27 Jun 4.1 21:43:35 10° NNW 21:51:24 85° ENE 21:56:35 26° SSE visible
27 Jun 5.8 23:36:34 10° WNW 23:41:41 19° WSW 23:43:59 16° SW visible
28 Jun 4.4 20:58:19 10° NNW 21:05:53 56° NE 21:12:54 15° SE visible
28 Jun 5.3 22:49:52 10° NW 22:56:36 31° WSW 23:00:18 22° SSW visible
29 Jun 4.7 22:03:52 10° NW 22:11:23 50° WSW 22:16:41 22° S visible
30 Jun 4.2 21:18:15 10° NNW 21:26:03 78° WSW 21:33:07 16° SSE visible
30 Jun 6.2 23:12:40 10° W 23:16:08 13° WSW 23:19:41 10° SW visible
01 Jul 4.2 20:32:53 10° NNW 20:40:37 70° ENE 20:48:57 10° SE visible
01 Jul 5.7 22:25:06 10° WNW 22:31:06 24° WSW 22:37:03 11° SSW visible
02 Jul 5.1 21:38:47 10° NW 21:45:58 39° WSW 21:53:32 10° S visible
03 Jul 4.6 20:53:00 10° NW 21:00:42 62° WSW 21:08:55 10° SSE visible
04 Jul 6.1 22:00:38 10° WNW 22:05:35 18° WSW 22:10:41 10° SW visible
